Volver al catálogo

STARLINK-3899

ActivoComunicacionesVLEO
NORAD 52457·PAYLOAD·🇺🇸 United States

Lanzado May 6, 2022 desde Cape Canaveral Space Force Station

Loading…

Próximos Pases (próximas 24 horas)

TLE

ActualizadoSource: CelesTrak SupGP

Época: Sep 15, 2026, 01:14 UTC

1 52457C 22049G   26258.05187500  .00742580  00000+0  23507-1 0  2580
2 52457  53.1592 295.5589 0001314  96.3531 167.0378 15.31833288    14

Sigue STARLINK-3899 en tiempo real con AllMySat

Download on the App Store